[[{"header":{"parameterUnit":"m.s-1","parameterCategory":1,"la1":30.2991,"la2":30.254,"lo1":-89.0895,"lo2":-89.0444,"dy":0.0017,"dx":0.0017,"nx":28,"ny":28,"refTime":"2025-09-05T03:00:00:Z","depth":0,"parameterNumber":2,"parameterNumberName":"U-component_of_WINDS"},"data":[0,0,0,0,0,0,0,0,0,0,0,0,0,0,0,0,0,0,0,0,0,0,0,0,0,0,0,0,0,0,0,0,0,0,0,0,0,0,0,0,0,0,0,0,0,0,0,0,0,0,0,0,0,0,0,0,0,0,1.7761,1.7761,0,1.7722,1.7721,1.7721,1.7659,1.7658,1.7657,1.7656,1.7615,1.7615,1.7615,0,0,0,0,0,0,0,0,0,0,0,0,0,1.778,1.778,1.7761,1.7761,1.776,1.7722,1.7721,1.7721,1.7659,1.7658,1.7657,1.7655,1.7615,1.7615,1.7615,0,0,0,0,0,0,0,0,0,0,0,0,0,1.7759,1.778,1.7761,1.7725,1.7721,1.7722,1.7721,1.7721,1.766,1.7658,1.7656,1.7655,1.7615,1.7615,1.7615,1.7647,0,0,1.7614,1.7614,0,0,0,0,0,0,0,0,1.7761,1.7759,1.7731,1.7727,1.7723,1.7694,1.7713,1.7696,1.766,1.7683,1.7656,1.7654,1.7642,1.764,1.7636,1.7645,1.7644,1.7614,1.7614,1.7614,1.7614,0,0,0,0,0,0,0,1.7762,1.776,1.7746,1.773,1.7726,1.7709,1.7705,1.7709,1.7672,1.7681,1.7676,1.7673,1.764,1.7636,1.7635,1.7643,1.7614,1.7614,1.7614,1.7614,1.7672,1.7674,0,0,0,0,0,0,1.7769,1.7762,1.7747,1.7744,1.7738,1.7711,1.7705,1.7705,1.7672,1.7666,1.7674,1.767,1.7637,1.7635,1.7633,1.7665,1.7614,1.7614,1.7614,1.7671,1.7673,1.7674,0,0,0,0,0,0,1.777,1.7768,1.7748,1.7752,1.7748,1.7712,1.7712,1.7705,1.7701,1.7667,1.766,1.7677,1.7636,1.7633,1.7643,1.7663,1.7614,1.7614,1.7669,1.7671,1.7673,1.7733,0,0,0,0,0,0,1.7771,1.7769,1.7782,1.7753,1.7748,1.776,1.7713,1.7705,1.7701,1.7695,1.7668,1.7662,1.7634,1.7644,1.7643,1.7662,1.7614,1.7667,1.767,1.7673,1.7729,1.7737,1.7744,0,0,0,0,0,1.7772,1.7801,1.7783,1.7782,1.7764,1.7762,1.7759,1.7727,1.7703,1.7715,1.7692,1.7663,1.7662,1.7645,1.7644,1.7664,1.7665,1.7669,1.7672,1.7726,1.7736,1.7744,0,0,0,0,0,0,1.7835,1.7797,1.7776,1.7798,1.7783,1.7751,1.7766,1.7739,1.7731,1.7726,1.7686,1.768,1.7694,1.768,1.7663,1.7691,1.7659,1.7662,1.77,1.7709,1.7716,1.7718,1.7614,0,0,0,0,0,1.7851,1.7854,1.782,1.7842,1.7836,1.7802,1.78,1.7776,1.776,1.7753,1.7732,1.7716,1.7712,1.771,1.7704,1.7727,1.7718,1.774,1.7747,1.7754,1.7757,1.7763,1.7771,1.7686,1.7686,1.7686,0,0,1.7885,1.7865,1.7869,1.7854,1.784,1.7842,1.7798,1.7802,1.7802,1.7754,1.7761,1.7745,1.7725,1.774,1.7746,1.7729,1.7778,1.7758,1.7764,1.7763,1.7768,1.7776,1.7783,1.7688,1.7688,1.7688,0,0,1.7947,1.7934,1.7948,1.7935,1.7914,1.789,1.7894,1.7866,1.7852,1.7859,1.7822,1.7821,1.7816,1.7801,1.7793,1.7847,1.7818,1.7846,1.7885,1.7892,1.7898,1.7904,1.792,1.7926,1.785,1.785,1.785,0,1.7992,1.7993,1.7959,1.7965,1.7958,1.7914,1.7927,1.7916,1.7894,1.789,1.7871,1.786,1.7844,1.7853,1.7866,1.7863,1.7863,1.7848,1.7901,1.7906,1.7911,1.7925,1.7931,1.7853,1.7853,1.7852,1.7852,0,1.8047,1.8049,1.8063,1.8042,1.8037,1.8047,1.8012,1.8011,1.7987,1.7966,1.7971,1.7949,1.7937,1.7938,1.7916,1.7943,1.7932,1.7908,1.7874,1.7923,1.7935,1.794,1.7858,1.7857,1.7856,1.7855,0,0,1.8148,1.8106,1.8112,1.81,1.8072,1.8072,1.8079,1.8066,1.8064,1.8051,1.8053,1.8048,1.8023,1.8015,1.799,1.7997,1.8035,1.797,1.7969,1.798,1.806,1.8076,1.8083,1.8017,1.8018,1.8018,1.806,0,1.8202,1.821,1.8178,1.8195,1.8193,1.815,1.8155,1.8138,1.8118,1.8113,1.809,1.8085,1.8056,1.8049,1.8054,1.803,1.805,1.8027,1.8016,1.8016,1.8019,1.809,1.8109,1.8149,1.8065,1.8066,1.8067,0,1.8266,1.8254,1.827,1.8238,1.8236,1.8241,1.8225,1.8222,1.82,1.8184,1.8173,1.8144,1.8146,1.8115,1.8115,1.8099,1.8093,1.808,1.8081,1.8076,1.8042,1.8085,1.8162,1.8167,1.8075,1.8074,1.8074,0,1.8333,1.8321,1.8328,1.832,1.8284,1.8288,1.8273,1.825,1.8243,1.8229,1.8223,1.821,1.8202,1.8191,1.8158,1.814,1.8161,1.8128,1.8145,1.8146,1.815,1.815,1.8224,1.8151,1.8151,1.8151,1.8151,0,1.8395,1.8405,1.8357,1.8361,1.837,1.8333,1.8343,1.8324,1.8303,1.8301,1.8264,1.8262,1.822,1.8214,1.8188,1.8189,1.8187,1.8172,1.8165,1.8174,1.8175,1.8168,1.8163,1.8152,1.8152,1.8152,1.8152,0,1.8471,1.844,1.8443,1.8408,1.84,1.8408,1.8377,1.8378,1.8355,1.8352,1.835,1.8312,1.8302,1.8268,1.8251,1.8233,1.8241,1.8229,1.8248,1.8243,1.8261,1.8258,1.833,1.8336,1.8263,1.8263,1.8264,0,1.8511,1.8517,1.8483,1.8478,1.8465,1.8459,1.8451,1.8414,1.8407,1.8381,1.8385,1.8372,1.8359,1.8344,1.8315,1.83,1.8285,1.8311,1.8282,1.829,1.8281,1.828,1.8278,1.8316,1.8317,1.8318,1.8319,0,1.8584,1.8567,1.8558,1.8542,1.8534,1.852,1.8503,1.8502,1.846,1.8454,1.8442,1.8432,1.8412,1.8399,1.8378,1.8361,1.8332,1.8328,1.8331,1.8339,1.8348,1.834,1.8262,1.8326,1.8326,1.8325,1.8325,1.8324,1.8641,1.8643,1.8618,1.8607,1.8591,1.8576,1.8574,1.855,1.854,1.852,1.8499,1.8489,1.8464,1.8434,1.8419,1.8409,1.8394,1.8399,1.8399,1.84,1.8403,1.8352,1.8406,1.8406,1.8405,1.8405,1.8405,0,1.8709,1.869,1.8681,1.8658,1.8649,1.8623,1.8603,1.8597,1.8589,1.8568,1.8556,1.8541,1.8526,1.8495,1.8477,1.8476,1.8461,1.8472,1.847,1.8466,1.8419,1.8417,1.8483,1.8483,1.8483,1.8483,1.8483,1.8483,1.8743,1.8744,1.8724,1.8716,1.8697,1.8687,1.8677,1.8662,1.8645,1.863,1.8617,1.8597,1.8571,1.8551,1.8535,1.8526,1.852,1.8534,1.852,1.8477,1.847,1.8463,1.846,1.8534,1.8534,1.8567,1.8567,1.8568]},{"header":{"parameterUnit":"m.s-1","parameterCategory":1,"la1":30.2991,"la2":30.254,"lo1":-89.0895,"lo2":-89.0444,"dy":0.0017,"dx":0.0017,"nx":28,"ny":28,"refTime":"2025-09-05T03:00:00:Z","depth":0,"parameterNumber":3,"parameterNumberName":"V-component_of_WINDS"},"data":[0,0,0,0,0,0,0,0,0,0,0,0,0,0,0,0,0,0,0,0,0,0,0,0,0,0,0,0,0,0,0,0,0,0,0,0,0,0,0,0,0,0,0,0,0,0,0,0,0,0,0,0,0,0,0,0,0,0,1.2932,1.2933,0,1.2998,1.2999,1.3,1.3012,1.3011,1.3011,1.301,1.3075,1.3077,1.3079,0,0,0,0,0,0,0,0,0,0,0,0,0,1.2812,1.2815,1.2932,1.2933,1.2934,1.2998,1.2999,1.3,1.3012,1.3011,1.3011,1.301,1.3074,1.3077,1.3079,0,0,0,0,0,0,0,0,0,0,0,0,0,1.287,1.2815,1.2932,1.2948,1.295,1.2998,1.2999,1.3,1.3012,1.3011,1.301,1.301,1.3073,1.3077,1.308,1.3116,0,0,1.309,1.3091,0,0,0,0,0,0,0,0,1.2867,1.2874,1.2945,1.2947,1.2949,1.2996,1.2981,1.3039,1.3012,1.2988,1.301,1.3009,1.3049,1.3054,1.3068,1.3119,1.3122,1.309,1.3092,1.3094,1.3095,0,0,0,0,0,0,0,1.2863,1.2872,1.2958,1.2946,1.2948,1.295,1.2957,1.2992,1.3022,1.299,1.2991,1.2999,1.305,1.3065,1.307,1.3123,1.309,1.3093,1.3095,1.3096,1.3204,1.3205,0,0,0,0,0,0,1.2856,1.2868,1.2956,1.296,1.2905,1.2953,1.2961,1.2982,1.3022,1.3027,1.3,1.2999,1.306,1.3066,1.3072,1.3116,1.3094,1.3097,1.3099,1.3203,1.3204,1.3205,0,0,0,0,0,0,1.2854,1.2864,1.2954,1.2915,1.2926,1.2956,1.2979,1.2983,1.2999,1.3029,1.3034,1.301,1.3059,1.3068,1.3105,1.3118,1.3098,1.3101,1.3202,1.3203,1.3205,1.3205,0,0,0,0,0,0,1.285,1.2863,1.2879,1.2915,1.2928,1.2986,1.298,1.2985,1.3005,1.3005,1.304,1.3045,1.3059,1.31,1.3108,1.3123,1.3104,1.3201,1.3203,1.3204,1.3204,1.3206,1.3208,0,0,0,0,0,1.2846,1.2876,1.2879,1.289,1.2948,1.2987,1.2995,1.3012,1.3006,1.302,1.304,1.3044,1.3116,1.3103,1.3113,1.3129,1.32,1.3202,1.3204,1.3203,1.3205,1.3208,0,0,0,0,0,0,1.284,1.2881,1.2885,1.2928,1.2954,1.2989,1.3009,1.3014,1.3042,1.3041,1.306,1.3068,1.3103,1.312,1.3106,1.3165,1.3157,1.3161,1.3153,1.3156,1.3158,1.3153,1.3107,0,0,0,0,0,1.2844,1.2874,1.2907,1.2941,1.2954,1.2979,1.2997,1.3007,1.3035,1.3046,1.3068,1.3093,1.3121,1.3139,1.3167,1.3206,1.3212,1.3221,1.3223,1.3225,1.3228,1.3247,1.3251,1.3211,1.3211,1.3211,0,0,1.2852,1.2878,1.2895,1.2941,1.2962,1.2991,1.2988,1.3019,1.304,1.305,1.3087,1.3103,1.3132,1.317,1.3188,1.3185,1.324,1.3227,1.3228,1.323,1.3249,1.3253,1.3256,1.3213,1.3213,1.3212,0,0,1.2881,1.2904,1.2935,1.2956,1.2988,1.3004,1.3011,1.3045,1.3057,1.3094,1.3101,1.3125,1.3174,1.3194,1.321,1.3244,1.3248,1.3252,1.3263,1.3282,1.3285,1.3288,1.3298,1.3302,1.3255,1.3255,1.3255,0,1.2887,1.2932,1.2949,1.2979,1.2998,1.3009,1.3038,1.3058,1.3097,1.3109,1.3105,1.3165,1.3186,1.3227,1.3235,1.3248,1.3255,1.3249,1.3283,1.3286,1.3289,1.3299,1.3303,1.3255,1.3255,1.3255,1.3255,0,1.2936,1.2966,1.2987,1.3025,1.3046,1.3075,1.3096,1.3115,1.3123,1.3138,1.3174,1.3199,1.3231,1.3241,1.325,1.3283,1.328,1.328,1.3272,1.3293,1.3302,1.3307,1.3256,1.3256,1.3256,1.3256,0,0,1.2965,1.3011,1.3018,1.3034,1.3069,1.3093,1.3121,1.3153,1.3168,1.3194,1.3217,1.3257,1.3256,1.3275,1.3285,1.3302,1.3324,1.3299,1.33,1.3302,1.336,1.336,1.3365,1.3327,1.3328,1.3329,1.3358,0,1.2997,1.3051,1.3066,1.311,1.3137,1.3146,1.3171,1.3194,1.3209,1.3233,1.3249,1.3276,1.3273,1.3284,1.3301,1.3318,1.3336,1.3316,1.3348,1.3349,1.334,1.337,1.3371,1.3397,1.3362,1.3362,1.3363,0,1.3043,1.307,1.3116,1.3146,1.3158,1.318,1.3209,1.3233,1.3258,1.3267,1.3287,1.3295,1.3324,1.3315,1.3353,1.3339,1.3352,1.3362,1.3364,1.3367,1.3357,1.3373,1.3406,1.3409,1.3369,1.3369,1.3368,0,1.3057,1.3105,1.3139,1.3153,1.3189,1.3204,1.3219,1.3244,1.3261,1.3286,1.3297,1.3324,1.3339,1.3359,1.3374,1.3366,1.341,1.3403,1.3417,1.3417,1.3426,1.3425,1.346,1.3436,1.3436,1.3436,1.3436,0,1.3092,1.312,1.3146,1.3166,1.3197,1.3214,1.3243,1.3259,1.328,1.3303,1.3312,1.3332,1.3351,1.3373,1.3385,1.3413,1.342,1.3427,1.343,1.3426,1.3425,1.3435,1.3433,1.3437,1.3436,1.3436,1.3436,0,1.3114,1.3132,1.3169,1.32,1.3208,1.3229,1.3254,1.3274,1.3288,1.3316,1.3323,1.3345,1.3372,1.3389,1.3423,1.343,1.3461,1.3464,1.3453,1.3454,1.3467,1.3465,1.3509,1.3515,1.3487,1.3487,1.3488,0,1.3134,1.3156,1.3188,1.3204,1.322,1.3245,1.3263,1.3279,1.3296,1.3326,1.3341,1.3368,1.3391,1.3433,1.3451,1.3476,1.3479,1.3492,1.3482,1.3477,1.3477,1.3476,1.3477,1.3494,1.3494,1.3494,1.3494,0,1.3168,1.3176,1.3201,1.3229,1.3249,1.3272,1.3294,1.3306,1.3326,1.3345,1.3372,1.339,1.3424,1.345,1.3476,1.349,1.3495,1.3497,1.3502,1.3498,1.349,1.3493,1.3456,1.3496,1.3496,1.3496,1.3496,1.3496,1.319,1.3208,1.3234,1.3261,1.3279,1.3299,1.3318,1.3334,1.3358,1.3387,1.3395,1.3423,1.3445,1.3482,1.3496,1.3517,1.3515,1.3522,1.3523,1.3525,1.3524,1.3487,1.3522,1.3522,1.3522,1.3522,1.3522,0,1.3223,1.3239,1.3264,1.3295,1.3315,1.3318,1.3342,1.3359,1.3384,1.3405,1.3427,1.3457,1.3482,1.3501,1.3526,1.3539,1.3542,1.3545,1.3544,1.3547,1.3525,1.3519,1.3543,1.3543,1.3543,1.3543,1.3543,1.3543,1.3243,1.3274,1.3284,1.3324,1.334,1.3368,1.3381,1.3399,1.3415,1.3449,1.347,1.3483,1.3502,1.3528,1.3551,1.3555,1.3564,1.3567,1.3572,1.3551,1.3549,1.3547,1.354,1.3568,1.3568,1.3591,1.3592,1.3592]}]]